Regional Weather Roundup
Issued by NWS Charleston, SC

Current Version | Previous Version | Graphics & Text | Print | Product List | Glossary On
Versions: 1 2 3 4 5 6 7 8 9 10 11 12 13 14 15 16 17 18 19 20 21 22 23 24 25 26 27 28 29 30 31 32 33 34 35 36 37 38 39 40 41 42 43 44 45 46 47 48 49 50
000 ASUS42 KCHS 011710 RWRCHS REGIONAL WEATHER ROUNDUP NATIONAL WEATHER SERVICE CHARLESTON SC 100 PM EDT MON SEP 01 2014 NOTE: "FAIR" INDICATES FEW OR NO CLOUDS BELOW 12,000 FEET WITH NO SIGNIFICANT WEATHER AND/OR OBSTRUCTIONS TO VISIBILITY. NOT ALL STATIONS ARE QUALITY CONTROLLED BY THE NATIONAL WEATHER SERVICE. USE DATA WITH CAUTION...ESPECIALLY DEWPOINT OBSERVATIONS. SCZ027-030-031-034>040-042>050-011800- ...SOUTH CAROLINA... CITY SKY/WX TMP DP RH WIND PRES REMARKS N CHARLESTON MOSUNNY 92 71 50 CALM 30.10F HX 98 WATERFRONT PRK N/A 86 N/A N/A SE6 N/A FORT JOHNSON NOT AVBL MOUNT PLEASANT FAIR 90 75 62 S5 30.11S HX 100 JOHNS ISLAND SUNNY 90 77 66 S6 30.11S HX 102 PINOPOLIS N/A 91 73 55 MISG 30.06R HX 100 MONCKS CORNER NOT AVBL SUMMERVILLE FAIR 90 73 58 CALM 30.11F HX 98 BEAUFORT MCAS SUNNY 92 71 50 S5 30.10F HX 98 BEAUFORT ARPT FAIR 90 73 58 CALM 30.10F HX 98 HILTON HEAD IS MOSUNNY 88 75 66 SE5 30.13S HX 97 GEORGETOWN NOT AVBL WALTERBORO SUNNY 91 64 40 N5 30.11F HX 93 ORANGEBURG SUNNY 92 70 48 E5 30.10F HX 97 BARNWELL FAIR 91 73 55 CALM 30.12F HX 100 AIKEN PTSUNNY 95 72 46 E6 30.13F HX 103 MANNING FAIR 91 73 55 CALM 30.10F HX 100 KINGSTREE NOT AVBL COLUMBIA MOSUNNY 93 71 48 MISG 30.09F HX 100 SUMTER SUNNY 92 73 53 S5 30.09F HX 100 FLORENCE SUNNY 93 70 46 VRB3 30.09F HX 99 MYRTLE BEACH MOSUNNY 88 75 66 S12 30.10F HX 97 N MYRTLE BEACH MOSUNNY 86 76 71 S8 30.10F HX 96 $$ GAZ063-065-086>088-099>101-113>116-118-119-134-136>141-150-011800- ...GEORGIA... CITY SKY/WX TMP DP RH WIND PRES REMARKS SAVANNAH ARPT PTSUNNY 90 72 55 NE5 30.11F HX 97 HUNTER AAF SUNNY 91 73 56 VRB5 30.09F HX 99 FORT STEWART MOSUNNY 91 73 54 VRB1 30.10F HX 100 STATESBORO NOT AVBL SYLVANIA SUNNY 83 70 64 S3 30.12F CLAXTON NOT AVBL THOMSON SUNNY 94 74 52 CALM 30.15F HX 104 AUGUSTA-BUSH MOSUNNY 91 72 53 CALM 30.09F HX 98 AUGUSTA-DANIEL SUNNY 94 68 42 E3 30.11F HX 98 SWAINSBORO FAIR 95 73 49 S3 30.11F HX 105 VIDALIA N/A 90 73 58 CALM 30.12F HX 98 ALMA SUNNY 91 74 57 VRB3 30.11F HX 100 WAYCROSS MOSUNNY 94 78 58 CALM 30.11F HX 109 JESUP N/A 95 77 55 N6 30.11F HX 109 BRUNSWICK SUNNY 91 70 49 CALM 30.12F HX 97 SAINT SIMONS SUNNY 88 74 63 SE9 30.12F HX 96 $$ SCZ027-028-034-036>038-045-046-048>050-GAZ119-141-011800- ...LAKE AND SUPPLEMENTAL COASTAL OBSERVATIONS... STATION/POSITION TIME TEMP WIND PRES WAVE SWELL AIR SEA DIR/SP/G HT/PER HT/PER/DIR (UTC) (F) (DEG/KT/KT) (MB) (FT/S) (FT/S/D) UPR LAKE MARION NOT AVBL WINYAH BAY 1600 87 140/ 4 1020.0S LAKE MURRAY 1600 85 180/ 6/ 6 1019.0F ACE BASIN NERRS 1600 89 110/ 1 1020.0S FORT PULASKI 1700 85 100/ 8/ 10 1020.1F SAPELO ISLAND 1600 89 240/ 3 1021.0S $$ ANZ835-935-AMZ111-154-330-350-352-354-374-450-454-472-011800- ...C-MAN AND BUOY OBSERVATIONS... STATION/POSITION TIME TEMP WIND PRES WAVE SWELL AIR SEA DIR/SP/G HT/PER HT/PER/DIR (UTC) (F) (DEG/KT/KT) (MB) (FT/S) (FT/S/D) FOLLY BEACH CMAN 1600 84 170/ 6/ 6 1020.2F BUOY 41004 1700 83 86 150/ 2/ 4 1019.3F 2/ 8 2/ 8 BUOY 41008 1700 84 87 CALM / 2 1020.1F 2/ 9 2/120/ 9 5E ST. MARYS GA 1700 86 N/A 2/ 9 FRYING PAN BUOY NOT AVBL BUOY 41025 1700 81 220/ 10/ 12 1019.3F 3/ 8 2/140/ 8 CAPE LOOKOUT NC 1600 83 240/ 9/ 12 1019.6F BUOY 41002 1647 82 85 190/ 6/ 8 1021.4F 3/ 9 3/120/ 9 BUOY 41010 1700 83 85 90/ 4/ 6 1020.7F 2/ 8 2/ 90/ 8 BUOY 41012 NOT AVBL ST AUGUSTINE FL 1700 83 120/ 9/ 9 1020.7F CAPERS NEARSHORE 1600 87 160/ 4/ 6 N/A FRIPP NEARSHORE NOT AVBL $$

USA.gov is the U.S. government's official web portal to all federal, state and local government web resources and services.